Location: Unspecified
(0.0000°N, 0.0000°E)
Time: 23:07:39
(UTC+00:00)

Vanguard 2 - All Passes

Search period start: 01 October 2020 00:00
Search period end: 11 October 2020 00:00
Orbit: 554 x 2937 km, 32.9° (Epoch: 01 October)

Date Brightness Start Highest point End Pass type
(mag) Time Alt. Az. Time Alt. Az. Time Alt. Az.
01 Oct - 00:44:54 10° WSW 01:01:43 76° NW 01:12:30 10° NE night (unlit)
01 Oct - 03:02:49 10° W 03:12:01 23° NW 03:18:38 10° N visible
01 Oct - 11:51:45 10° NW 11:56:15 57° NE 12:03:05 10° ESE daylight
01 Oct - 14:00:15 10° W 14:05:47 30° SSW 14:14:10 10° SSE daylight
01 Oct - 16:13:52 10° SW 16:18:47 14° S 16:24:43 10° SSE daylight
01 Oct - 18:28:37 10° SSW 18:35:24 14° S 18:42:57 10° SE visible
01 Oct - 20:38:57 10° SSW 20:52:36 27° SSE 21:05:56 10° ESE visible
01 Oct - 22:49:48 10° SW 23:07:28 60° SSE 23:20:53 10° ENE visible
02 Oct - 01:03:34 10° WSW 01:19:40 59° NW 01:30:09 10° NE night (unlit)
02 Oct - 03:23:52 10° WNW 03:30:05 15° NW 03:35:03 10° N visible
02 Oct - 12:09:29 10° WNW 12:14:06 82° SW 12:21:19 10° SE daylight
02 Oct - 14:19:19 10° WSW 14:24:23 21° SSW 14:31:27 10° SSE daylight
02 Oct - 16:34:45 10° SSW 16:38:12 11° S 16:42:02 10° SSE daylight
02 Oct - 18:46:58 10° SSW 18:55:09 16° SSE 19:04:15 10° SE visible
02 Oct - 20:56:35 10° SSW 21:11:37 34° SSE 21:25:53 10° E visible
02 Oct - 23:07:44 10° SW 23:25:49 75° SE 23:39:13 10° ENE visible
03 Oct - 01:22:39 10° WSW 01:37:35 44° NW 01:47:35 10° NNE visible
03 Oct - 10:20:59 10° N 10:23:57 19° NE 10:27:23 10° E daylight
03 Oct - 12:27:32 10° WNW 12:32:08 47° SSW 12:39:11 10° SE daylight
03 Oct - 14:39:04 10° SW 14:43:12 15° SSW 14:48:24 10° SSE daylight
03 Oct - 16:55:53 10° S 16:57:46 10° S 16:59:45 10° SSE daylight
03 Oct - 19:04:48 10° SSW 19:14:42 19° SSE 19:25:40 10° ESE visible
03 Oct - 21:14:12 10° SW 21:30:22 43° SSE 21:45:20 10° E visible
03 Oct - 23:25:51 10° SW 23:44:01 88° NW 23:57:16 10° NE visible
04 Oct - 01:42:16 10° W 01:55:32 33° NW 02:04:50 10° NNE visible
04 Oct - 10:37:58 10° NNW 10:41:42 36° NE 10:46:25 10° ESE daylight
04 Oct - 12:46:01 10° W 12:50:23 29° SSW 12:56:41 10° SSE daylight
04 Oct - 15:00:07 10° SSW 15:02:11 11° S 15:04:27 10° S daylight
04 Oct - 17:15:09 10° S 17:17:26 10° S 17:19:51 10° SSE daylight
04 Oct - 19:22:24 10° SSW 19:33:59 23° SSE 19:46:44 10° ESE visible
04 Oct - 21:31:52 10° SW 21:48:55 54° SSE 22:04:18 10° ENE visible
04 Oct - 23:44:15 10° WSW 00:02:06 71° NW 00:15:05 10° NE visible
05 Oct - 02:02:31 10° W 02:13:39 24° NW 02:21:52 10° NNE visible
05 Oct - 10:55:29 10° NW 10:59:29 73° NE 11:04:48 10° ESE daylight
05 Oct - 13:05:03 10° WSW 13:08:50 19° SSW 13:13:48 10° SSE daylight
05 Oct - 17:32:39 10° S 17:37:03 12° SSE 17:41:56 10° SE daylight
05 Oct - 19:39:53 10° SSW 19:52:58 29° SSE 20:07:15 10° E visible
05 Oct - 21:49:38 10° SW 22:07:19 67° SE 22:22:53 10° ENE visible
06 Oct - 00:03:01 10° WSW 00:20:09 55° NW 00:32:42 10° NE visible
06 Oct - 02:23:35 10° WNW 02:31:58 18° NW 02:38:36 10° N visible
06 Oct - 09:07:39 10° N 09:09:15 12° NNE 09:10:51 10° ENE daylight
06 Oct - 11:13:23 10° WNW 11:17:23 56° SSW 11:22:44 10° SE daylight
06 Oct - 13:25:05 10° SW 13:27:26 12° SSW 13:30:08 10° S daylight
06 Oct - 17:49:53 10° S 17:56:32 14° SSE 18:04:10 10° SE visible
06 Oct - 19:57:22 10° SSW 20:11:42 37° SSE 20:27:12 10° E visible
06 Oct - 22:07:35 10° SW 22:25:35 82° SE 22:41:10 10° ENE visible
07 Oct - 00:22:11 10° WSW 00:38:14 43° NW 00:50:10 10° NNE night (unlit)
07 Oct - 02:45:54 10° NW 02:50:34 12° NNW 02:54:38 10° N visible
07 Oct - 09:23:58 10° NNW 09:27:13 23° NE 09:30:33 10° E daylight
07 Oct - 11:31:45 10° W 11:35:27 30° SSW 11:40:16 10° SSE daylight
07 Oct - 18:07:05 10° SSW 18:15:45 18° SSE 18:26:00 10° ESE visible
07 Oct - 20:14:53 10° SW 20:30:12 47° SE 20:46:36 10° ENE visible
07 Oct - 22:25:44 10° WSW 22:43:45 81° NW 22:59:11 10° NE visible
08 Oct - 00:41:53 10° W 00:56:25 33° NW 01:07:29 10° NNE night (unlit)
08 Oct - 09:41:13 10° NW 09:45:05 47° NE 09:49:10 10° ESE daylight
08 Oct - 11:50:44 10° WSW 11:53:41 17° SSW 11:57:16 10° SSE daylight
08 Oct - 18:24:18 10° SSW 18:34:42 24° SSE 18:47:14 10° ESE visible
08 Oct - 20:32:31 10° SW 20:48:34 59° SE 21:05:32 10° ENE visible
08 Oct - 22:44:11 10° WSW 23:01:56 66° NW 23:17:00 10° NE visible
09 Oct - 01:02:14 10° W 01:14:48 25° NNW 01:24:40 10° NNE night (unlit)
09 Oct - 09:58:58 10° WNW 10:02:56 78° SW 10:07:15 10° SE daylight
09 Oct - 18:41:35 10° SSW 18:53:22 30° SSE 19:07:47 10° E visible
09 Oct - 20:50:17 10° SW 21:06:48 73° SE 21:24:06 10° ENE visible
09 Oct - 23:02:59 10° WSW 23:20:07 52° NW 23:34:37 10° NE visible
10 Oct - 01:23:17 10° WNW 01:33:27 19° NNW 01:41:41 10° N visible
10 Oct - 08:09:18 10° NNW 08:12:33 18° NNE 08:15:25 10° ENE daylight
10 Oct - 10:17:10 10° WNW 10:20:50 36° SSW 10:24:53 10° SE daylight
10 Oct - 16:53:35 10° S 16:58:12 13° SSE 17:03:28 10° SE daylight
10 Oct - 18:58:55 10° SSW 19:11:48 39° SE 19:27:41 10° E visible
10 Oct - 21:08:14 10° SW 21:25:00 89° SE 21:42:20 10° NE visible
10 Oct - 23:22:13 10° W 23:38:25 41° NW 23:52:08 10° NNE visible
